RH
75 93 94 84 91 81 78 85 90 81 61 72 67 62 52 51 55 53 48 48 44 44 50 53 62 71 79 78 79 84 85 80 59 57 56 60 60 45 41 39 39 41 42 43
85 90 68 67 70 84 92 94 88 67 57 58 73 74 59 48 45 48 42 46 42 54 56 61 69 82 82 87 89 85 84 78 69 60 64 58 60 56 45 43 38 37 38 38
89 68 58 68 74 79 82 94 86 83 66 57 53 67 64 52 49 43 40 38 45 49 56 65 77 84 87 86 83 75 72 67 61 54 51 52 50 56 53 53 47 38 34 37
82 66 64 69 76 73 88 70 70 68 66 92 71 85 68 59 53 48 41 47 48 50 56 64 76 80 80 81 76 70 65 61 58 54 53 50 54 59 68 61 49 41 34 35
89 84 77 75 70 64 75 56 60 61 63 72 71 86 73 59 56 52 45 42 43 50 54 63 72 70 75 75 74 70 67 67 70 67 59 60 64 67 64 55 46 38 36 34
91 68 79 66 55 55 61 67 70 74 77 98 68 78 68 66 55 49 43 44 49 52 57 68 74 71 73 70 68 66 64 67 65 60 61 59 55 50 48 48 47 44 40 40
94 96 82 74 77 67 63 84 97 98 97 84 56 77 61 64 56 42 38 46 52 54 67 75 73 68 66 65 64 59 57 59 56 53 50 47 44 40 39 40 39 36 35 37
99 92 95 81 82 84 82 81 93 94 99 65 77 88 68 52 39 37 40 44 53 63 67 71 69 67 64 61 61 54 51 50 46 42 42 39 38 42 40 36 36 34 34 33
97 92 75 69 67 64 88 95 65 88 84 98 85 83 59 53 50 51 53 56 62 68 72 73 70 66 64 62 56 50 47 45 41 39 36 36 35 34 34 31 32 32 30 23
84 96 78 70 75 71 64 64 91 96 99 98 91 78 43 50 58 61 59 63 68 74 77 75 69 68 65 57 56 50 43 40 37 34 31 32 31 30 29 28 26 26 27 28
71 98 89 90 99 91 96 90 77 69 80 96 98 80 41 38 48 58 59 64 73 78 78 75 72 68 63 57 50 48 42 37 34 31 32 32 31 29 28 28 27 27 28 29
86 99 98 90 75 71 73 74 70 79 74 72 97 74 48 44 50 48 54 63 69 72 76 76 71 69 61 54 50 46 42 37 35 34 34 34 31 28 29 29 29 30 30 31
92 99 98 100 98 84 80 71 62 54 82 73 88 72 46 53 55 52 60 67 67 74 77 76 72 67 61 54 49 46 41 38 37 36 36 34 33 31 31 32 32 32 34 35
88 99 99 97 90 88 98 84 69 62 89 72 94 85 57 55 54 62 63 65 68 73 74 75 71 68 60 52 48 45 41 37 38 37 36 35 34 33 33 35 35 35 35 37
92 100 100 96 93 94 77 89 83 78 68 79 62 78 63 49 52 59 60 64 68 74 76 72 71 69 62 55 49 41 39 38 38 39 41 38 36 35 36 37 36 37 38 39
87 99 99 98 83 91 91 82 78 82 84 92 68 62 44 55 58 66 64 63 66 70 72 70 68 68 62 54 45 37 39 40 39 41 40 38 36 34 36 36 37 37 39 40
85 96 99 99 76 89 99 93 87 95 83 80 76 53 51 53 51 64 65 58 62 66 70 69 68 64 59 49 39 38 38 39 38 38 36 34 32 32 36 35 36 38 40 43
69 78 87 97 70 78 52 46 60 62 59 56 57 49 51 55 70 69 73 59 61 63 68 66 66 63 55 44 40 37 35 36 37 36 33 31 32 32 34 35 37 40 42 45
75 81 92 97 91 65 48 46 60 70 66 62 61 57 65 68 67 73 84 71 69 65 67 66 64 57 48 40 35 34 37 38 36 34 30 30 31 33 35 37 40 42 45 49
76 80 89 96 88 83 60 52 46 50 64 61 56 63 65 65 64 71 91 83 80 77 70 64 55 48 40 37 33 34 37 36 34 31 32 31 34 34 37 40 44 45 49 48
87 90 95 95 96 78 60 52 51 62 54 64 63 62 61 56 69 87 77 72 66 62 55 48 45 42 37 34 33 35 35 34 33 34 34 35 36 37 39 44 48 50 51 50
92 94 94 94 97 82 55 46 49 49 76 78 78 80 88 88 82 78 72 69 63 57 50 45 42 40 38 35 34 36 35 36 36 37 37 38 38 38 39 48 50 51 53 54
91 84 90 85 78 67 66 63 67 64 69 81 85 82 81 82 80 76 74 65 57 51 48 44 42 41 42 40 33 35 37 37 37 37 38 41 43 47 48 53 54 55 54 58
86 78 87 81 67 76 68 72 67 68 76 80 78 78 75 81 76 74 68 59 55 52 48 44 41 41 43 38 36 37 39 38 37 39 45 49 51 56 54 53 51 58 62 66
81 76 77 79 72 71 67 71 72 75 74 75 75 73 74 72 74 69 68 62 56 50 47 44 41 39 42 40 40 40 40 40 42 46 48 51 56 61 59 55 58 66 64 64
63 71 71 74 54 55 58 66 67 70 75 74 75 78 76 68 70 67 68 63 55 55 54 50 46 40 42 41 42 44 44 45 48 47 51 56 64 64 58 62 65 57 54 54
Wind_Speed
2 3 9 10 7 6 8 5 8 2 7 7 12 17 18 14 11 10 13 10 8 10 5 5 5 6 7 5 7 6 10 7 9 9 7 5 5 6 7 7 9 9 7 7
4 12 9 9 10 9 10 14 18 8 9 11 10 17 14 18 19 14 18 11 9 6 7 7 6 4 5 6 7 7 8 8 6 6 5 5 5 5 7 6 8 7 7 7
17 7 17 12 14 12 14 15 9 8 9 15 15 22 14 15 17 14 18 14 8 17 14 9 8 7 7 8 8 8 8 9 9 12 10 8 8 5 5 5 5 5 7 6
12 16 13 13 17 12 17 7 11 10 10 6 2 12 8 8 16 17 21 10 11 14 8 7 7 6 7 7 8 9 10 11 9 10 10 11 6 7 2 4 3 5 6 6
7 7 16 21 18 14 11 10 9 9 12 11 17 10 9 14 17 18 19 14 15 18 18 15 12 10 6 7 8 8 10 10 8 8 10 8 8 5 4 5 7 6 5 6
8 3 4 16 15 15 3 5 9 3 4 10 19 12 10 13 14 11 18 11 14 16 13 10 8 9 7 6 9 7 11 7 8 10 9 11 11 9 7 5 5 3 3 4
5 11 6 3 3 7 16 8 4 8 8 13 9 12 22 7 13 15 13 13 17 18 18 16 16 13 11 10 10 9 12 9 9 11 10 9 9 8 8 6 4 4 2 2
6 7 16 15 16 8 13 15 5 6 4 8 6 12 10 16 26 21 9 13 18 19 19 18 16 14 12 11 9 11 13 11 10 11 10 8 8 5 5 5 4 4 3 2
7 9 3 9 10 16 4 14 23 6 5 4 7 6 11 12 7 7 11 18 20 19 19 18 14 13 12 10 11 12 13 10 10 10 9 8 7 7 6 7 5 3 3 2
3 6 7 8 5 11 17 7 5 6 4 6 5 8 13 14 10 7 15 18 17 16 16 15 14 12 9 10 9 10 11 11 9 9 8 7 7 6 6 6 5 4 3 3
8 8 3 8 14 17 8 11 9 7 7 3 3 7 10 16 15 15 14 17 20 19 17 16 13 11 10 10 10 10 11 11 9 8 8 8 6 6 6 5 4 3 3 3
14 4 8 17 8 17 23 20 18 7 8 7 4 10 4 9 16 19 17 14 14 15 16 14 14 13 12 11 10 10 9 10 8 7 8 7 7 6 6 5 4 3 3 4
9 5 5 5 6 10 16 17 22 13 3 16 7 10 8 7 8 9 16 14 14 15 15 14 13 13 12 11 10 10 9 9 8 8 8 7 6 6 5 4 3 4 4 3
13 5 8 8 1 7 11 22 22 18 7 10 12 18 9 6 10 10 11 15 16 17 17 14 13 13 12 11 11 10 9 9 8 8 7 7 6 5 4 3 3 3 3 5
9 5 9 15 22 16 18 22 24 27 11 13 22 26 10 9 13 14 15 15 15 15 15 16 15 13 11 11 10 9 9 9 8 8 7 6 5 5 4 3 3 3 5 5
7 5 6 8 8 16 15 17 19 16 13 21 16 2 5 4 8 8 14 16 16 16 16 15 14 14 14 13 12 11 10 9 8 7 6 6 5 4 3 3 4 5 5 5
5 4 5 7 1 14 9 19 14 18 21 8 2 2 5 4 7 9 12 16 18 18 18 18 17 15 13 13 14 12 11 9 8 7 6 6 4 4 3 4 4 5 5 5
5 3 4 4 5 3 4 3 6 6 7 6 6 3 4 5 6 7 2 11 13 15 15 14 13 12 12 12 11 11 10 9 8 7 6 5 4 4 3 3 4 5 3 4
8 2 3 2 2 5 4 6 3 5 3 6 7 6 5 7 5 6 5 2 6 10 11 11 12 13 13 14 13 12 9 8 7 6 5 4 4 3 2 4 4 4 3 4
4 3 2 3 2 1 2 2 1 1 3 0 3 9 10 6 5 4 3 3 11 11 12 15 13 14 15 12 12 12 9 8 7 6 6 5 4 3 3 3 4 3 3 5
3 1 2 2 2 7 4 2 2 3 5 2 1 7 9 7 1 9 8 11 11 12 15 15 14 14 13 11 12 11 8 7 6 6 5 4 3 2 2 2 2 4 5 5
5 5 3 2 1 6 4 3 2 3 2 2 2 3 10 13 14 12 12 13 14 16 15 14 15 12 9 9 11 9 8 6 6 6 5 4 3 2 3 4 5 4 5 5
4 6 5 8 6 1 3 1 1 2 2 3 6 9 17 15 13 12 12 13 12 14 13 11 14 12 7 7 9 10 6 6 6 6 5 3 3 3 4 3 5 4 5 4
4 3 2 2 2 2 2 2 3 4 5 7 9 12 13 19 12 13 12 11 11 10 11 11 13 11 7 7 7 8 7 6 6 6 4 3 3 3 4 3 3 3 4 4
5 5 5 5 3 0 2 1 5 7 10 12 9 10 14 17 12 13 12 11 11 10 9 10 11 9 7 7 7 6 6 6 6 5 3 2 1 3 4 3 3 3 4 5
5 6 5 6 6 4 3 8 9 11 10 11 15 12 8 11 14 12 10 9 10 10 8 9 8 9 7 7 7 6 5 6 5 4 1 1 1 2 2 4 5 7 11 14
Wind_Direction
246 186 216 214 219 247 278 254 255 344 311 308 263 272 261 251 251 244 251 247 240 217 196 214 170 132 118 118 124 122 121 121 124 118 112 92 94 105 88 74 76 72 70 63
272 244 218 217 223 232 245 262 263 288 266 275 279 286 281 258 245 234 246 237 217 165 183 196 157 141 140 131 114 103 108 109 106 107 97 106 114 75 89 85 70 68 66 61
220 223 225 213 225 222 236 242 262 252 291 280 288 281 266 257 244 244 244 242 191 180 182 186 158 148 136 133 133 122 116 112 106 111 106 100 95 80 80 62 67 58 68 65
244 231 253 224 231 217 246 196 244 262 274 253 42 282 262 253 236 227 236 212 188 188 173 154 149 150 144 136 117 117 119 117 118 122 120 123 123 121 106 101 107 75 64 64
214 217 217 232 232 219 250 236 239 257 256 272 262 276 252 227 243 236 229 212 203 184 169 167 160 150 141 132 117 115 112 108 106 106 112 113 106 101 98 98 99 85 64 64
234 289 282 233 239 222 246 238 267 274 267 237 234 209 248 226 226 237 229 196 184 172 159 140 123 126 118 117 106 109 110 101 104 108 106 113 120 120 113 110 104 97 74 52
207 227 241 241 203 223 218 213 219 203 210 240 183 201 244 265 252 250 231 192 174 163 149 146 146 143 138 134 118 118 116 104 107 106 105 109 114 113 116 123 122 106 78 47
195 294 193 193 202 184 208 202 233 196 201 250 145 230 247 223 244 252 247 190 159 157 152 154 152 146 140 137 120 121 117 114 111 110 104 103 105 108 107 110 103 98 103 116
194 245 209 182 181 191 183 213 216 289 232 257 215 257 282 256 246 188 154 160 159 155 152 151 148 145 142 136 131 128 120 115 112 114 110 103 105 102 107 99 98 97 83 91
228 268 198 174 166 227 214 153 165 208 235 237 249 224 229 189 199 161 157 161 153 147 143 144 147 141 134 131 124 118 120 122 121 112 109 109 108 105 104 101 98 95 86 51
221 227 162 162 202 193 177 210 216 180 217 243 289 250 201 215 171 170 170 164 156 152 149 150 144 137 133 130 131 125 120 120 117 111 109 108 111 105 100 103 101 95 74 42
207 249 233 226 224 217 205 206 201 202 211 221 360 275 289 173 167 167 163 162 149 146 146 145 145 141 142 140 134 132 125 121 124 118 110 111 110 107 107 101 95 86 59 25
172 220 269 226 209 186 196 192 199 211 107 235 256 267 3 109 116 147 144 145 144 141 142 145 144 149 147 144 137 133 129 126 123 117 115 111 113 114 107 104 77 50 31 1
174 220 223 268 27 141 161 202 195 195 194 189 236 295 276 132 135 132 139 144 149 154 154 152 151 151 150 145 139 133 125 127 126 118 115 119 120 115 113 91 60 34 6 360
190 254 222 249 251 248 177 185 189 198 191 195 247 240 226 177 163 161 149 147 148 154 157 161 157 151 143 137 133 130 128 127 126 118 119 124 121 112 98 72 38 12 14 360
216 278 255 258 179 199 185 194 203 193 194 214 245 30 113 113 100 127 152 155 161 164 164 160 155 150 152 147 142 137 132 131 126 123 125 128 118 115 90 54 21 17 3 354
219 236 304 326 58 172 187 211 183 173 196 194 343 203 156 117 120 156 159 169 171 169 165 164 162 158 148 146 145 142 138 130 122 124 130 130 125 105 72 41 20 359 347 339
257 252 252 300 317 38 305 85 169 144 168 149 145 122 145 147 100 87 13 172 169 167 161 158 150 138 137 135 129 123 128 127 127 129 130 122 112 91 54 28 4 340 325 329
225 239 310 357 314 292 9 3 53 149 239 186 210 130 131 122 87 37 12 118 149 146 146 140 136 129 128 130 130 126 124 125 122 129 126 119 106 88 38 4 347 312 312 315
174 228 126 354 55 62 218 343 335 239 301 35 165 155 152 145 137 224 32 81 98 101 119 122 119 121 121 128 128 125 126 125 129 131 130 123 111 84 21 344 323 289 301 289
165 171 185 324 305 288 255 313 299 98 237 320 270 173 162 155 187 122 104 79 91 104 111 113 116 121 124 123 122 122 127 126 131 124 124 110 81 36 357 340 326 316 314 307
158 147 160 155 272 301 351 3 120 221 38 7 14 93 95 106 100 100 103 102 104 107 107 109 109 110 110 117 120 119 119 135 124 122 110 89 58 18 25 359 329 322 317 320
216 183 177 184 214 259 322 348 58 139 108 67 99 108 118 113 108 105 101 98 98 103 102 106 112 110 96 102 122 122 145 131 121 108 94 72 43 41 14 347 325 324 333 331
248 174 223 106 20 193 206 360 34 46 101 100 106 115 123 119 117 111 107 105 103 100 105 111 111 112 108 109 107 120 130 124 115 109 93 62 38 15 342 333 317 332 322 307
197 138 175 267 271 80 259 170 118 86 100 97 82 108 124 119 116 120 116 115 115 115 114 117 121 118 118 114 109 115 119 118 113 103 79 31 345 332 323 325 316 323 293 308
187 180 168 220 202 162 227 144 133 126 129 122 118 102 87 120 123 123 114 118 121 120 117 111 109 116 119 114 116 116 118 115 112 98 70 294 323 316 315 332 321 321 329 332